Weather in Krupino

Russia / Mari El Republic     56°42′46″N   50°00′39″E
temp.,
°C
wind,
m/s
gust,
m/s
humid.,
%
clouds,
%
prec.,
mm/h
press.,
hPa
HPBL,
m
3 march, wed
wed300:00−3wnw599495 0.1 998402
03:00−8wsw349789 0.1 99977
06:00−5wsw3896100 0.3 998239
09:00−4wnw5995100 0.9 999505
12:00−3nw71092100 0.7 1000755
15:00−5nw71086100 0.8 1001758
18:00−6wnw51190100 0.1 1002728
21:00−8w41293100 0.1 1003377
4 march, thu
thu400:00−7wsw4991100 0.1 1001392
03:00−8sw51095100 0.4 1000426
06:00−6sw4119598 0.4 997381
09:00−4sw5109298 0.4 995634
12:00−2sw71194100 0.4 992917
15:00−1wsw61089100 1.3 9911032
18:00−4w6148782 0.9 992713
21:00−6w7149077 0.9 995449
5 march, fri
fri500:00−6wnw4994100 0.1 997298
03:00−12wnw349792 0.1 99975
06:00−14nw339781 0.0 100139
09:00−12nnw349466 0.0 1002195
12:00−10nw348989 0.0 1002339
15:00−10nw468986 0.0 1004442
18:00−15wnw479569 0.0 1006135
21:00−16wnw369768 0.0 100994
6 march, sat
sat600:00−18wnw349738 0.0 101146
03:00−18wsw339724 0.0 101240
06:00−18sw349856 0.0 101258
09:00−13sw469463 0.0 1011247
12:00−9wsw479199 0.1 1011501
15:00−8w469199 0.3 1010582
18:00−13nw3794100 0.3 1010163
21:00−18wnw339573 0.3 101123
7 march, sun
sun700:00−20w23970 0.0 101022
03:00−19sw369827 0.0 101197
06:00−20sw4610082 0.0 1010110
09:00−15sw489582 0.0 1010265
12:00−11ssw598894 0.0 1008495
15:00−11s7128896 0.0 1005603
18:00−11s71590100 0.1 1003709
21:00−10s91690100 0.3 999839